CYGFM06 (41889 NORAD) Tracking and Keplerian Element Data

This shows tracking and keplerian element data for the satellite.

Feedback or suggestion? Click here.




ElementValue
Catalog41889
NameCYGFM06
Epoch Orbit13028
Epoch Day113.46426371
Epoch Year2019
RAAN150.0585
Inclination34.9574
Eccentricity0.0014469
Argument of Perigee251.349
Mean Anonmoly108.5651
Mean Motion15.14860282
Decay Rate2.94E-06
L11 41889U 16078F 19113.46426371 .00000294 00000-0 17134-4 0 9995
L22 41889 34.9574 150.0585 0014469 251.3490 108.5651 15.14860282130283

Live tracking and technical data element details for CYGFM06 (NORAD 41889). CYGFM06 can be tracked NOW for your location showing map with azimuth and elevation plus other details from your city location.

Track the satellite on the map from your city or location and see movement details for azimuth, elevation, latitude, longitude, range, height, and movement on the map or in text.







IsCatalogInMostPopularTable: catalog: 41889, numindb: 191
Update: records affected: 1



GetName: 41889 CYGFM06

Hit Count: updated at: Wed, 24 Apr 2019 17:48:39 GMT